Weather History for KCGI - October, 2013

Change the Weather History Date:

Tuesday, October 1, 2013

  Actual Average Record
Temperature  
Mean Temperature 69 °F 63 °F  
Max Temperature 74 °F 75 °F 92 °F (1971)
Min Temperature 64 °F 50 °F 35 °F (1984)
Degree Days  
Heating Degree Days 0 5  
Month to date heating degree days 0 5  
Since 1 July heating degree days 11 54  
Cooling Degree Days 4 2  
Month to date cooling degree days 4 2  
Year to date cooling degree days 1397 1424  
Growing Degree Days 18 (Base 50)    
Moisture  
Dew Point 66 °F    
Average Humidity 92    
Maximum Humidity 100    
Minimum Humidity 84    
Precipitation  
Precipitation 0.00 in 0.11 in 1.99 in (1986)
Month to date precipitation 0.00 0.11  
Year to date precipitation 28.67 34.44  
Sea Level Pressure  
Sea Level Pressure 30.02 in    
Wind  
Wind Speed 4 mph (SSE)    
Max Wind Speed 9 mph    
Max Gust Speed 14 mph    
Visibility 5 miles    
Events      
T = Trace of Precipitation, MM = Missing Value Source: NWS Daily Summary

Daily Weather History Graph

Daily Weather History Graph

Search for Another Location

Airport or City:

Trip Planner

Search our weather history database for the weather conditions in past years. The results will help you decide how hot, cold, wet, or windy it might be!

Date:

Astronomy

Oct. 01, 2013 Rise Set
Actual Time 6:53 AM CDT 6:41 PM CDT
Civil Twilight 6:27 AM CDT 7:07 PM CDT
Nautical Twilight 5:57 AM CDT 7:37 PM CDT
Astronomical Twilight 5:27 AM CDT 8:07 PM CDT
Moon 3:32 AM CDT (10/1) 4:41 PM CDT (10/1)
Length of Visible Light 12h 39m
Length of Day
11h 47m
Waning Crescent, 12% of the Moon is Illuminated
Oct 1
Waning Crescent
Oct 4
New
Oct 11
First Quarter
Oct 18
Full
Oct 26
Last Quarter

Hourly Weather History & Observations

Time (CDT) Temp. Dew Point Humidity Pressure Visibility Wind Dir Wind Speed Gust Speed Precip Events Conditions
12:24 AM 66.2 °F 64.4 °F 94% 29.98 in 5.0 mi SSE 5.8 mph - N/A   Overcast
12:53 AM 66.0 °F 64.9 °F 96% 29.97 in 5.0 mi SE 4.6 mph - N/A   Overcast
1:22 AM 66.2 °F 64.4 °F 94% 29.98 in 5.0 mi SE 4.6 mph - N/A   Overcast
1:53 AM 66.0 °F 64.0 °F 93% 29.98 in 5.0 mi SE 3.5 mph - N/A   Overcast
2:53 AM 66.9 °F 64.9 °F 93% 29.98 in 6.0 mi Calm Calm - N/A   Overcast
3:10 AM 66.2 °F 64.4 °F 94% 29.99 in 6.0 mi Calm Calm - N/A   Overcast
3:27 AM 66.2 °F 64.4 °F 94% 29.99 in 6.0 mi ESE 3.5 mph - N/A   Overcast
3:53 AM 64.9 °F 64.0 °F 97% 29.98 in 4.0 mi Calm Calm - N/A   Mostly Cloudy
4:28 AM 66.2 °F 64.4 °F 94% 29.99 in 5.0 mi SE 3.5 mph - N/A   Overcast
4:38 AM 64.4 °F 64.4 °F 100% 29.99 in 4.0 mi SE 3.5 mph - N/A   Mostly Cloudy
4:46 AM 64.4 °F 62.6 °F 94% 29.99 in 4.0 mi SSE 3.5 mph - N/A   Scattered Clouds
4:53 AM 64.9 °F 63.0 °F 93% 29.99 in 4.0 mi SSE 4.6 mph - N/A   Scattered Clouds
5:12 AM 64.4 °F 64.4 °F 100% 30.00 in 5.0 mi Calm Calm - N/A   Mostly Cloudy
5:38 AM 64.4 °F 62.6 °F 94% 30.00 in 5.0 mi Calm Calm - N/A   Scattered Clouds
5:49 AM 64.4 °F 62.6 °F 94% 30.01 in 5.0 mi SSE 4.6 mph - N/A   Mostly Cloudy
5:53 AM 64.9 °F 64.0 °F 97% 30.00 in 5.0 mi SSE 4.6 mph - N/A   Scattered Clouds
6:06 AM 64.4 °F 64.4 °F 100% 30.01 in 5.0 mi Calm Calm - N/A   Mostly Cloudy
6:43 AM 66.2 °F 64.4 °F 94% 30.03 in 6.0 mi Calm Calm - N/A   Overcast
6:53 AM 66.0 °F 64.0 °F 93% 30.02 in 7.0 mi SSE 3.5 mph - N/A   Overcast
7:53 AM 66.9 °F 64.9 °F 93% 30.04 in 6.0 mi SE 5.8 mph - N/A   Overcast
8:01 AM 66.2 °F 64.4 °F 94% 30.04 in 6.0 mi SE 5.8 mph - N/A   Overcast
8:53 AM 68.0 °F 66.0 °F 93% 30.05 in 4.0 mi South 4.6 mph - N/A   Overcast
9:53 AM 69.1 °F 66.0 °F 90% 30.05 in 4.0 mi South 6.9 mph - N/A   Overcast
10:53 AM 70.0 °F 66.0 °F 87% 30.06 in 6.0 mi South 8.1 mph - N/A   Overcast
11:53 AM 71.1 °F 66.9 °F 87% 30.05 in 5.0 mi SSW 4.6 mph - N/A   Overcast
12:53 PM 73.0 °F 68.0 °F 84% 30.04 in 6.0 mi South 6.9 mph - N/A   Haze
1:16 PM 73.4 °F 68.0 °F 83% 30.04 in 7.0 mi WSW 4.6 mph - N/A   Overcast
1:34 PM 73.4 °F 68.0 °F 83% 30.04 in 6.0 mi South 6.9 mph - N/A   Haze
1:53 PM 73.0 °F 68.0 °F 84% 30.03 in 6.0 mi South 4.6 mph - N/A   Haze
2:53 PM 73.9 °F 68.0 °F 82% 30.02 in 6.0 mi South 6.9 mph - N/A   Haze
3:42 PM 73.4 °F 68.0 °F 83% 30.02 in 6.0 mi South 6.9 mph - N/A   Haze
3:53 PM 73.0 °F 68.0 °F 84% 30.02 in 6.0 mi South 5.8 mph - N/A   Haze
4:53 PM 73.0 °F 69.1 °F 87% 30.01 in 7.0 mi SSE 6.9 mph - N/A   Overcast
5:51 PM 73.4 °F 69.8 °F 88% 30.02 in 7.0 mi SSE 5.8 mph - N/A   Overcast
5:53 PM 73.0 °F 69.1 °F 87% 30.01 in 7.0 mi SE 5.8 mph - N/A   Overcast
6:42 PM 69.8 °F 68.0 °F 94% 30.01 in 5.0 mi SE 6.9 mph - N/A   Scattered Clouds
6:53 PM 70.0 °F 68.0 °F 93% 30.01 in 5.0 mi SE 6.9 mph - N/A   Clear
7:53 PM 68.0 °F 66.0 °F 93% 30.02 in 4.0 mi SE 4.6 mph - N/A   Clear
8:53 PM 68.0 °F 66.9 °F 96% 30.04 in 3.0 mi Calm Calm - N/A   Clear
9:19 PM 68.0 °F 66.2 °F 94% 30.04 in 3.0 mi Calm Calm - N/A   Partly Cloudy
9:35 PM 68.0 °F 66.2 °F 94% 30.04 in 2.5 mi Calm Calm - N/A   Scattered Clouds
9:40 PM 68.0 °F 66.2 °F 94% 30.04 in 1.5 mi Calm Calm - N/A   Mostly Cloudy
9:44 PM 66.2 °F 66.2 °F 100% 30.04 in 0.8 mi Calm Calm - N/A   Mostly Cloudy
9:53 PM 68.0 °F 66.0 °F 93% 30.04 in 1.2 mi Calm Calm - N/A   Mostly Cloudy
10:14 PM 68.0 °F 66.2 °F 94% 30.05 in 2.0 mi Calm Calm - N/A   Overcast
10:53 PM 69.1 °F 68.0 °F 96% 30.04 in 2.5 mi SSE 3.5 mph - N/A   Overcast
11:25 PM 69.8 °F 68.0 °F 94% 30.04 in 2.0 mi SSE 3.5 mph - N/A   Mostly Cloudy
11:53 PM 69.1 °F 68.0 °F 96% 30.04 in 4.0 mi SSE 5.8 mph - N/A   Partly Cloudy